Overview Statistics Trail Chart Weather Telemetry Raw packets
 

This is the latest recevied weather packets stored in our database for station/object EA3DJ-10. If no packets are shown the sender has not sent any weather packets the latest 10 day(s).

<< 15 16 17 18 19 20 21 >>
Time Temp. Humidity Pressure Rain* Wind** Luminosity Snow
1788152382 27.78° C 41% 1018.8 hPa - - - -
1788151182 27.78° C 42% 1018.8 hPa - - - -
1788149982 27.78° C 42% 1018.7 hPa - - - -
1788148782 27.78° C 42% 1018.8 hPa - - - -
1788147581 27.78° C 43% 1018.8 hPa - - - -
1788146381 27.78° C 43% 1018.7 hPa - - - -
1788145181 27.78° C 43% 1018.7 hPa - - - -
1788143981 28.33° C 43% 1018.7 hPa - - - -
1788142781 28.33° C 43% 1018.6 hPa - - - -
1788141581 28.33° C 43% 1018.6 hPa - - - -
1788140381 28.33° C 42% 1018.6 hPa - - - -
1788139181 28.89° C 42% 1018.5 hPa - - - -
1788137980 32.22° C 34% 1018.3 hPa - - - -
1788136780 30° C 38% 1018.3 hPa - - - -
1788135590 28.33° C 41% 1018.3 hPa - - - -
1788135580 28.33° C 41% 1018.3 hPa - - - -
1788134380 28.33° C 41% 1018.2 hPa - - - -
1788133180 28.33° C 40% 1018.3 hPa - - - -
1788131980 28.33° C 39% 1018.4 hPa - - - -
1788130780 27.78° C 38% 1018.3 hPa - - - -
1788129580 28.89° C 42% 1018.2 hPa - - - -
1788128380 30.56° C 39% 1018.3 hPa - - - -
1788127180 30° C 32% 1018.2 hPa - - - -
1788125979 31.11° C 38% 1018.1 hPa - - - -
1788124779 30° C 31% 1017.9 hPa - - - -

* Rain since midnight (hover to see other rain measurements)
** Current wind speed in m/s (hover to see current wind gust speed)